Location: Marcé
(47.5801°N, 0.3280°W)
Time: 15:48:31
(UTC+01:00)

SR - Pass Details

Date: 06 December 2021
Orbit: 582 x 872 km, 66.7° (Epoch: 22 January)

Event Time Altitude Azimuth Distance (km) Brightness Sun altitude
Rises 07:33:16 0° 330° (NNW) 2,817 - -9.9°
Exits shadow 07:34:37 - 335° (NNW) 2,295 ? -9.7°
Reaches altitude 10° 07:35:38 10° 340° (NNW) 1,924 ? -9.5°
Maximum altitude 07:39:35 35° 47° (NE) 985 ? -8.9°
Drops below altitude 10° 07:43:41 10° 114° (ESE) 2,000 ? -8.3°
Sets 07:46:11 0° 123° (ESE) 2,946 ? -7.9°
